Location: Cudham
(51.3000°N, 0.0667°E)
Time: 16:42:20
(UTC+00:00)

USA 229 DEB - Pass Details

Date: 27 April 2026
Orbit: 844 x 1364 km, 63.4° (Epoch: 10 January)

Event Time Altitude Azimuth Distance (km) Brightness Sun altitude
Rises 23:01:55 0° 315° (NW) 3,971 7.6 -23.5°
Reaches altitude 10° 23:04:32 10° 311° (NW) 3,080 6.8 -23.6°
Maximum altitude 23:11:49 57° 236° (SW) 1,464 4.2 -23.9°
Enters shadow 23:14:20 42° 184° (S) 1,772 4.3 -23.9°
